Regional Weather Roundup
Issued by NWS

Home | Current Version | Previous Version | Graphics & Text | Print | Product List | Glossary On
Versions: 1 2 3 4 5 6 7 8 9 10 11 12 13 14 15 16 17 18 19 20 21 22 23 24 25 26 27 28 29 30 31 32 33 34 35 36 37 38 39 40 41 42 43 44 45 46 47 48 49 50
000
ASUS44 KMEG 030900
RWRTN
TENNESSEE HOURLY STATE WEATHER ROUNDUP
NATIONAL WEATHER SERVICE MEMPHIS TN
400 AM CDT THU SEP 03 2015

TNZ002-004-019-021-049-052-054-088>092-031000-
WEST TENNESSEE

CITY           SKY/WX    TMP DP  RH WIND       PRES   REMARKS
MEMPHIS INTL   CLEAR     75  71  87 CALM      30.00S
NWS MEMPHIS      N/A    N/A N/A N/A MISG        N/A
JACKSON        CLEAR     69  68  96 CALM      30.00S FOG
DYERSBURG      CLEAR     72  70  94 CALM      30.01S
UNION CITY     CLEAR    N/A N/A N/A CALM      30.00R
PARIS          CLEAR     66  64  94 CALM      30.01S
LEXINGTON      CLEAR     68  68 100 CALM      30.00F
$$

TNZ008-025-027-028-033-062-065-066-031000-
NORTH MIDDLE TENNESSEE

CITY           SKY/WX    TMP DP  RH WIND       PRES   REMARKS
NASHVILLE      PTCLDY    75  69  81 CALM      30.01F
CLARKSVILLE    CLEAR     68  66  93 CALM      30.01R
SMYRNA         PTCLDY    72  71  96 CALM      30.02S
COOKEVILLE     CLEAR     68  68 100 CALM      30.03S
CROSSVILLE     FAIR      69  65  86 CALM      30.08F
$$

TNZ061-075-076-078-094-096-097-031000-
SOUTH MIDDLE TENNESSEE

CITY           SKY/WX    TMP DP  RH WIND       PRES   REMARKS
FAYETTEVILLE   CLEAR     72  72 100 CALM      30.02F
TULLAHOMA      PTCLDY    72  66  83 CALM      30.05R
WINCHESTER     CLEAR     72  70  94 CALM      30.04S
MCMINNVILLE    CLOUDY    70  70 100 CALM      30.04S VSB 1/4
COLUMBIA       CLEAR    N/A N/A N/A CALM      30.00F
SHELBYVILLE    CLEAR     70  70 100 CALM      30.03S
$$

TNZ017-018-042-046-047-031000-
NORTHEAST TENNESSEE

CITY           SKY/WX    TMP DP  RH WIND       PRES   REMARKS
TRI CITIES     MOCLDY    65  64  97 CALM      30.05S FOG
ELIZABETHTON   SUNNY     63  61  94 CALM      30.06S
$$

TNZ012-013-036-069-073-074-031000-
CENTRAL EAST TENNESSEE

CITY           SKY/WX    TMP DP  RH WIND       PRES   REMARKS
KNOXVILLE      CLOUDY    74  70  87 NE3       30.01R
OAK RIDGE      PTCLDY    71  68  90 CALM      30.04R
GATLINBURG     SUNNY     70  64  83 CALM      30.02R
$$

TNZ083-085-099-031000-
SOUTHEAST TENNESSEE

CITY           SKY/WX    TMP DP  RH WIND       PRES   REMARKS
CHATTANOOGA    CLOUDY    75  72  90 CALM      30.01R
$$

SKY/WX REPORTED AS FAIR MEANS FEW OR NO CLOUDS BELOW
12 THOUSAND FEET.



USA.gov is the U.S. government's official web portal to all federal, state and local government web resources and services.